Regional Weather Roundup
Issued by NWS

Home | Current Version | Previous Version | Graphics & Text | Print | Product List | Glossary On
Versions: 1 2 3 4 5 6 7 8 9 10 11 12 13 14 15 16 17 18 19 20 21 22 23 24 25 26 27 28 29 30 31 32 33 34 35 36 37 38 39 40 41 42 43 44 45 46 47 48 49 50
000
ASUS45 KBOU 030207
RWRCO

WEATHER ROUNDUP FOR COLORADO
NATIONAL WEATHER SERVICE DENVER/BOULDER CO
700 PM MST MON MAR 02 2015

NOTE: "FAIR" INDICATES FEW OR NO CLOUDS BELOW 12000 FEET WITH NO
SIGNIFICANT WEATHER AND/OR OBSTRUCTIONS TO VISIBILITY.

COZ001>005-013-030-031-030300-
...NORTHWEST COLORADO...

CITY           SKY/WX    TMP DP  RH WIND       PRES   REMARKS
CRAIG          LGT RAIN  33  31  92 SW3       29.65R
HAYDEN         CLOUDY    34  30  86 NW5       29.65S WCI  30
MEEKER         CLOUDY    34  32  92 NW7       29.67S WCI  28
MOUNT WERNER   NOT AVBL
STEAMBOAT SPGS CLOUDY    32  32  99 CALM      29.66R
WALDEN         CLOUDY    34  32  93 SW18G25   29.63R WCI  23
$$

COZ006>008-011-030300-
...WEST CENTRAL VALLEYS...

CITY           SKY/WX    TMP DP  RH WIND       PRES   REMARKS
GRAND JUNCTION CLOUDY    40  34  79 E7        29.69F
MONTROSE       NOT AVBL
EAGLE          LGT RAIN  37  36  93 W7G18     29.69R
RIFLE          LGT RAIN  38  33  82 W24G33    29.70R
DELTA          CLOUDY    44  38  80 SW5       29.77R
NUCLA          LGT RAIN  36  32  87 S18G25    29.85R
$$

COZ017>023-064>068-030300-
...SOUTHWEST COLORADO...

CITY           SKY/WX    TMP DP  RH WIND       PRES   REMARKS
DURANGO        NOT AVBL
CORTEZ         CLOUDY    35  33  92 S17       29.89R WCI  25
PAGOSA SPRINGS LGT SNOW  35  35 100 W12       29.78S WCI  27
TELLURIDE      LGT SNOW  29  28  96 SW16G23   29.86R VSB 3/4 WCI  17
WOLF CREEK PAS CLOUDY    23  23 100 MISG      29.74F
$$

COZ009-010-012-014-032>034-037-058>063-030300-
...CENTRAL COLORADO...

CITY           SKY/WX    TMP DP  RH WIND       PRES   REMARKS
ASPEN          LGT SNOW  33  31  92 N8        29.65S FOG     WCI  26
BUENA VISTA    CLOUDY    38  31  77 SE13G18   29.64F
COPPER MTN     LGT SNOW  28  21  74 S17G24    29.69F WCI  16
BERTHOUD PASS  LGT SNOW  21  16  79 SW10G17   29.72F WCI  10
COTTONWOOD PAS LGT SNOW  34  32  93 CALM      29.67F
GUNNISON       NOT AVBL
KREMMLING      RAIN      34  32  93 SW3       29.64R
LEADVILLE      CLOUDY    31  23  72 S9        29.64F WCI  23
SALIDA         CLOUDY    42  34  74 S13G22    29.72F
SUNLIGHT       HVY SNOW  27  27 100 SW6         N/A  VSB 1/4 WCI  20
WILKERSON PASS CLOUDY    27  25  93 SW9G17    29.71F WCI  17
$$

COZ069>075-030300-
...SAN LUIS VALLEY/SANGRE DE CRISTO MOUNTAINS...

CITY           SKY/WX    TMP DP  RH WIND       PRES   REMARKS
ALAMOSA        LGT RAIN  38  33  82 S29G45    29.72F
LA VETA PASS   LGT SNOW  32  30  93 S30G46    29.71F WCI  18
SAGUACHE       LGT SNOW  34  32  93 CALM      29.74S
$$

COZ035-036-038>040-030300-
...NORTHERN COLORADO FRONT RANGE...

CITY           SKY/WX    TMP DP  RH WIND       PRES   REMARKS
DENVER INTL AP MOCLDY    29  22  75 SW3       29.56F HAZE
DMNS CITY PARK   N/A     29  22  76 E2        29.56F
AURORA         MOCLDY    27  23  85 S6        29.55F FOG     WCI  20
FRONT RANGE AP NOT AVBL
ERIE MUNI ARPT PTCLDY    28  24  85 CALM      29.56F FOG
BOULDER MUN AP PTCLDY    30  25  80 CALM      29.56F
CENTENNIAL     MOCLDY    31  24  75 CALM      29.55F HAZE
BROOMFIELD     MOCLDY    28  23  80 CALM      29.56F HAZE
FORT COLLINS   PTCLDY    28  23  80 S3        29.58F
LONGMONT       PTCLDY    28  23  81 CALM      29.59F
$$

COZ041-046-047-076>085-087-088-030300-
...PIKES PEAK/PALMER DIVIDE AND SOUTHERN FOOTHILLS...

CITY           SKY/WX    TMP DP  RH WIND       PRES   REMARKS
COLO. SPRINGS  MOCLDY    30  26  85 CALM      29.67F
A. F. ACADEMY  PTCLDY    30  25  82 W2        29.64F
ELLICOTT       NOT AVBL
FALCON         PTCLDY    28  25  89 CALM      29.67F
FORT CARSON    PTCLDY    31  27  86 S6        29.65F WCI  25
LIMON          MOCLDY    28  25  88 SE9       29.63F WCI  19
MONUMENT HILL  PTCLDY    36  28  75 S15       29.60F
TRINIDAD       CLOUDY    39  31  72 W15       29.69F
$$

COZ042>045-048>051-090-091-030300-
...NORTHEAST COLORADO...

CITY           SKY/WX    TMP DP  RH WIND       PRES   REMARKS
GREELEY ARPT   PTCLDY    28  19  69 CALM      29.56F
AKRON          CLOUDY    30  28  92 SE12      29.58F WCI  20
BURLINGTON     CLOUDY    32  29  88 S25G31    29.67F WCI  19
WRAY           CLOUDY    35  31  87 SE15      29.67F WCI  25
STERLING       CLOUDY    32  28  86 SE7       29.60F WCI  26
HOLYOKE        NOT AVBL
FORT MORGAN    CLOUDY    31  26  81 NE8       29.57F WCI  24
$$

COZ086-089-092>099-030300-
...SOUTHEAST COLORADO...

CITY           SKY/WX    TMP DP  RH WIND       PRES   REMARKS
PUEBLO         MOCLDY    33  29  85 CALM      29.67F
LA JUNTA       CLOUDY    36  31  82 NE3       29.67F
LAMAR          CLOUDY    35  32  88 E3        29.65F
SPRINGFIELD      N/A     34  30  85 S28G36    29.74F WCI  21
$$


USA.gov is the U.S. government's official web portal to all federal, state and local government web resources and services.